Location: Praha
(50.0830°N, 14.4670°E)
Time: 11:05:44
(UTC+02:00)

ISS - Pass Details

Date: 01 August 2020
Orbit: 418 x 420 km, 51.6° (Epoch: 13 August)

Event Time Altitude Azimuth Distance (km) Brightness Sun altitude
Rises 21:57:26 0° 282° (WNW) 2,371 1.1 -10.2°
Reaches altitude 10° 22:00:09 10° 259° (W) 1,503 -0.5 -10.5°
Maximum altitude 22:02:12 15° 222° (SW) 1,222 -1.4 -10.8°
Drops below altitude 10° 22:04:14 10° 184° (S) 1,498 -1.3 -11.0°
Enters shadow 22:04:28 - 181° (S) 1,558 -1.3 -11.0°
